Simultaneous Nadir Overpasses (SNOs) Predictions

Prediction of SNOs between METOP-A and NOAA-19 Satellite Orbit:

Table of predicted SNOs for the next 14.0 days since TLE Epoch: 3/6/2021
Index Date (METOP-A) Time (METOP-A) Lat,Lon (METOP-A) SZA (METOP-A ) Date (NOAA-19) Time (NOAA-19) Lat,Lon (NOAA-19) SZA (NOAA-19 ) Distance(km) Time Diff (sec)
1 03/06/2021 05:12:27 80.85, 113.37 86.48 03/06/2021 05:12:12 80.85, 113.43 86.48 1.06 15
2 03/06/2021 06:03:08 -80.84, -79.34 93.55 03/06/2021 06:03:15 -80.85, -79.45 93.54 1.92 7
3 03/06/2021 06:53:48 80.86, 88.23 86.47 03/06/2021 06:54:12 80.85, 88.09 86.45 2.91 24
4 03/06/2021 07:44:30 -80.83,-104.83 93.59 03/06/2021 07:45:15 -80.85,-104.79 93.57 1.68 45
5 03/06/2021 08:35:10 80.85, 62.74 86.43 03/06/2021 08:36:12 80.85, 62.74 86.43 0.48 62
6 03/17/2021 04:44:27 80.85, 120.11 82.18 03/17/2021 04:43:13 80.85, 120.13 82.18 0.73 74
7 03/17/2021 05:35:07 -80.85, -72.55 97.84 03/17/2021 05:34:17 -80.85, -72.64 97.84 1.79 50
8 03/17/2021 06:25:48 80.84, 94.62 82.14 03/17/2021 06:25:12 80.85, 94.78 82.15 3.33 36
9 03/17/2021 07:16:28 -80.86, -97.69 97.85 03/17/2021 07:16:16 -80.85, -97.62 97.86 1.75 12
10 03/17/2021 08:07:09 80.85, 69.47 82.13 03/17/2021 08:07:12 80.85, 69.43 82.13 0.73 3
11 03/17/2021 08:57:50 -80.85,-123.18 97.89 03/17/2021 08:58:17 -80.85,-123.33 97.89 2.64 27
12 03/17/2021 09:48:31 80.84, 43.98 82.09 03/17/2021 09:49:12 80.85, 44.09 82.10 2.19 41



Historial Predications of SNOs between METOP-A and NOAA-19
